CST,Max TemperatureF,Mean TemperatureF,Min TemperatureF,Max Dew PointF,MeanDew PointF,Min DewpointF,Max Humidity, Mean Humidity, Min Humidity, Max Sea Level PressureIn, Mean Sea Level PressureIn, Min Sea Level PressureIn, Max VisibilityMiles, Mean VisibilityMiles, Min VisibilityMiles, Max Wind SpeedMPH, Mean Wind SpeedMPH, Max Gust SpeedMPH,PrecipitationIn, CloudCover, Events, WindDirDegrees
2013-12-1,51,40,28,34,30,27,100,72,44,30.14,30.07,29.93,10,6,0,7,3,10,0.00,0,Fog,341
2013-12-2,49,42,34,38,34,29,86,76,66,29.92,29.75,29.65,9,6,2,13,7,15,0.00,4,,124
2013-12-3,56,46,35,48,41,34,100,89,77,29.67,29.63,29.57,7,4,1,18,7,22,T,1,Rain,164
2013-12-4,60,45,29,51,45,22,93,79,64,29.89,29.62,29.49,10,6,2,26,11,37,0.00,8,,189
2013-12-5,29,24,19,22,12,7,75,64,52,30.35,30.15,29.88,10,10,10,22,14,28,T,5,,306
2013-12-6,20,15,10,7,2,-1,67,57,47,30.66,30.48,30.36,10,10,10,17,12,21,0.00,7,,342
2013-12-7,21,13,4,4,1,-1,86,63,39,30.77,30.66,30.51,10,10,10,14,8,17,0.00,0,,13
2013-12-8,24,20,16,21,17,4,88,71,54,30.49,30.12,30.00,10,5,1,15,9,19,T,8,Snow,148
2013-12-9,23,16,8,17,8,2,88,72,56,30.34,30.25,30.06,10,10,8,18,11,25,0.00,2,,279
2013-12-10,31,19,6,11,6,-1,80,60,39,30.31,30.26,30.17,10,10,10,24,10,30,0.00,0,,241
2013-12-11,26,15,3,17,6,-6,76,55,34,30.67,30.50,30.27,10,10,9,25,10,33,T,2,,318
2013-12-12,39,21,2,15,7,-4,79,58,37,30.62,30.43,30.23,10,10,10,21,10,26,0.00,0,,206
2013-12-13,36,29,22,31,27,16,92,70,47,30.21,30.02,29.95,10,4,0,14,8,18,0.65,6,Fog-Rain-Snow,156
2013-12-14,32,26,19,31,25,15,100,91,81,30.17,29.99,29.88,8,3,1,21,12,25,0.14,8,Snow,359
2013-12-15,24,19,14,21,15,11,88,81,74,30.19,30.13,30.06,8,6,4,15,6,19,0.00,6,,259
2013-12-16,24,21,18,22,19,14,96,90,84,30.17,30.07,30.00,8,4,1,15,8,18,0.00,8,,21
2013-12-17,37,28,18,28,20,13,92,73,53,30.27,30.17,30.12,10,5,0,17,8,21,T,3,Fog,259
2013-12-18,44,30,15,31,21,10,74,59,44,30.25,30.03,29.86,10,10,10,21,12,29,0.00,0,,186
2013-12-19,52,46,40,45,39,32,89,77,65,29.87,29.80,29.73,10,10,10,15,10,22,T,4,,179
2013-12-20,51,40,29,48,36,25,100,90,80,29.90,29.77,29.70,10,3,0,15,9,18,0.05,8,Fog-Rain,315
2013-12-21,31,30,28,29,26,25,92,89,85,29.89,29.76,29.65,10,5,2,17,11,21,0.12,8,Rain,11
2013-12-22,32,25,17,30,24,12,92,83,73,30.32,29.92,29.65,10,7,2,21,12,25,0.13,8,Rain-Snow,311
2013-12-23,18,11,4,12,4,-6,84,73,61,30.62,30.49,30.32,10,10,10,17,12,21,0.00,3,,291
2013-12-24,22,11,-1,13,1,-11,75,64,53,30.63,30.51,30.33,10,10,10,18,9,24,0.00,2,,182
2013-12-25,32,27,21,27,23,14,92,80,68,30.32,30.26,30.19,10,7,2,18,11,23,0.00,7,,234
2013-12-26,41,30,19,32,25,16,92,79,65,30.32,30.27,30.20,10,10,10,20,10,24,0.00,1,,214
2013-12-27,48,37,26,34,30,24,92,74,56,30.34,30.27,30.17,10,10,5,15,9,19,0.00,0,,215
2013-12-28,53,44,35,34,30,26,76,61,46,30.19,30.04,29.88,10,10,10,17,11,24,0.00,0,,205
2013-12-29,40,24,8,29,14,-5,88,70,52,30.33,30.09,29.86,10,10,9,28,18,35,T,5,,318
2013-12-30,24,13,2,12,0,-6,75,59,43,30.39,30.30,30.21,10,10,10,14,5,19,0.00,5,,243
2013-12-31,35,25,14,21,15,10,84,70,55,30.39,30.25,30.15,10,10,9,16,8,20,0.00,2,,37